KOREASAT 5 (MUGUNGWHA 5)

Last updated on Tue Sep 22 2026 00:03:11 GMT+0000 (Coordinated Universal Time)

1 29349U 06034A 26264.58275777 -.00000361 00000+0 00000+0 0 9997 2 29349 2.0252 81.6271 0001980 146.8083 94.9041 1.00271691 42283
UTC large
Height (km)
Speed (km/s)
/
Latitude / Longitude
Inclination (degrees)
Orbital Period (minutes)
Azimuth
Elevation
Range (km)
Doppler Factor

Next 0 passes for location: London (51.5072 / 0.1276)

No passes found over London.
KOREASAT 5 (MUGUNGWHA 5)